{"data":{"norad_id":53144,"epoch":"2026-05-24T19:53:18.294144Z","epoch_age_seconds":89768,"freshness":"FRESH","line1":"1 53144U 22083N   26144.82868396  .00010036  00000+0  64872-3 0  9998","line2":"2 53144  53.2124 192.3277 0002407  86.6862 273.4405 15.08785671212712","mean_motion":15.08785671,"eccentricity":0.0002407,"inclination_deg":53.2124,"raan_deg":192.3277,"arg_perigee_deg":86.6862,"mean_anomaly_deg":273.4405,"bstar":0.00064872,"rev_number":21271,"period_min":95.440991234069,"perigee_km":538.24428218351,"apogee_km":541.57462974741,"semimajor_km":6918.0464559655,"source":"CELESTRAK","updated_at":"2026-05-25T13:38:17.318185Z"}}